Weather History for Madrid, Spain

Change the Weather History Date:

Wednesday, April 12, 2006

  Actual Average Record
Temperature  
Mean Temperature 54 °F -  
Max Temperature 71 °F 66 °F 76 °F (2014)
Min Temperature 37 °F 44 °F 33 °F (2008)
Degree Days  
Heating Degree Days 11    
Growing Degree Days 4 (Base 50)    
Moisture  
Dew Point 35 °F    
Average Humidity 51    
Maximum Humidity 87    
Minimum Humidity 12    
Precipitation  
Precipitation 0.00 in 0.06 in - ()
Sea Level Pressure  
Sea Level Pressure 30.04 in    
Wind  
Wind Speed 3 mph ()    
Max Wind Speed 14 mph    
Max Gust Speed -    
Visibility 10.2 miles    
Events      
Averages and records for this station are not official NWS values.
T = Trace of Precipitation, MM = Missing Value Source: Averaged Metar Reports

Daily Weather History Graph

Daily Weather History Graph

Search for Another Location

Airport:

Trip Planner

Search our weather history database for the weather conditions in past years. The results will help you decide how hot, cold, wet, or windy it might be!

Date:

Astronomy

Apr. 12, 2006 Rise Set
Actual Time 7:40 AM CEST 8:49 PM CEST
Civil Twilight 7:12 AM CEST 9:18 PM CEST
Nautical Twilight 6:39 AM CEST 9:51 PM CEST
Astronomical Twilight 6:04 AM CEST 10:26 PM CEST
Moon 7:53 PM CEST (4/12) 7:04 AM CEST (4/12)
Length of Visible Light 14h 05m
Length of Day
13h 09m
Waxing Gibbous, 98% of the Moon is Illuminated
Apr 12
Waxing Gibbous
Apr 13
Full
Apr 21
Last Quarter
Apr 27
New
May 5
First Quarter

Hourly Weather History & Observations

Time (CEST) Temp. Windchill Dew Point Humidity Pressure Visibility Wind Dir Wind Speed Gust Speed Precip Events Conditions
12:00 AM 50.0 °F - 39.2 °F 66% 30.06 in - NNW 3.5 mph - N/A   Clear
12:30 AM 50.0 °F - 37.4 °F 62% 30.06 in - Variable 2.3 mph - N/A   Clear
1:00 AM 48.2 °F - 39.2 °F 71% 30.06 in - NNE 3.5 mph - N/A   Clear
1:30 AM 46.4 °F - 39.2 °F 76% 30.06 in - Calm Calm - N/A   Clear
2:00 AM 47 °F - 36 °F 57% 30.11 in 19 mi Calm Calm - -  
2:00 AM 48.2 °F - 35.6 °F 62% 30.06 in - Calm Calm - N/A   Clear
2:30 AM 44.6 °F 43.1 °F 35.6 °F 71% 30.06 in - North 3.5 mph - N/A   Clear
3:00 AM 44.6 °F 40.7 °F 37.4 °F 76% 30.06 in - North 6.9 mph - N/A   Clear
3:30 AM 46.4 °F - 37.4 °F 71% 30.06 in - NNW 2.3 mph - N/A   Clear
4:00 AM 42.8 °F - 37.4 °F 81% 30.06 in - Variable 2.3 mph - N/A   Clear
4:30 AM 42.8 °F 41.1 °F 35.6 °F 76% 30.06 in - North 3.5 mph - N/A   Clear
5:30 AM 41.0 °F - 35.6 °F 81% 30.04 in - North 2.3 mph - N/A   Clear
6:00 AM 41.0 °F - 35.6 °F 81% 30.04 in - North 2.3 mph - N/A   Clear
6:30 AM 39.2 °F 37.0 °F 33.8 °F 81% 30.04 in - North 3.5 mph - N/A   Clear
7:00 AM 39.2 °F 34.2 °F 33.8 °F 81% 30.04 in - North 6.9 mph - N/A   Clear
7:30 AM 39.2 °F 37.0 °F 33.8 °F 81% 30.04 in - NNW 3.5 mph - N/A   Clear
8:00 AM 38 °F - 34 °F 79% 30.13 in 12 mi North 2.3 mph - -   Clear
8:00 AM 37.4 °F - 33.8 °F 87% 30.06 in - Variable 1.2 mph - N/A   Clear
8:30 AM 39.2 °F - 33.8 °F 81% 30.06 in - North 2.3 mph - N/A   Clear
9:00 AM 42.8 °F - 35.6 °F 76% 30.06 in - Variable 2.3 mph - N/A   Clear
9:30 AM 46.4 °F - 37.4 °F 71% 30.06 in - Variable 1.2 mph - N/A   Clear
10:00 AM 48.2 °F - 37.4 °F 66% 30.06 in - WNW 1.2 mph - N/A   Clear
10:30 AM 51.8 °F - 35.6 °F 54% 30.06 in - East 2.3 mph - N/A   Clear
11:00 AM 53.6 °F - 35.6 °F 51% 30.06 in - SSW 2.3 mph - N/A   Clear
11:30 AM 57.2 °F - 35.6 °F 44% 30.06 in - SSW 2.3 mph - N/A   Clear
12:00 PM 60.8 °F - 41.0 °F 48% 30.06 in - NE 2.3 mph - N/A   Clear
12:30 PM 62.6 °F - 35.6 °F 37% 30.06 in - Variable 2.3 mph - N/A   Clear
1:00 PM 64.4 °F - 39.2 °F 40% 30.06 in - SW 3.5 mph - N/A   Clear
1:30 PM 64.4 °F - 35.6 °F 34% 30.06 in - South 3.5 mph - N/A   Clear
2:00 PM 67 °F - 37 °F 22% 30.00 in 19 mi SSE 5.8 mph - -  
2:00 PM 64.4 °F - 37.4 °F 37% 30.04 in - South 5.8 mph - N/A   Clear
2:30 PM 66.2 °F - 37.4 °F 35% 30.04 in - NNE 4.6 mph - N/A   Clear
3:00 PM 66.2 °F - 33.8 °F 30% 30.04 in - North 4.6 mph - N/A   Clear
3:30 PM 66.2 °F - 35.6 °F 32% 30.04 in - NNE 6.9 mph - N/A   Clear
4:00 PM 68.0 °F - 37.4 °F 33% 30.01 in - NE 6.9 mph - N/A   Clear
4:30 PM 68.0 °F - 33.8 °F 28% 30.01 in - North 6.9 mph - N/A   Clear
5:00 PM 68.0 °F - 37.4 °F 33% 30.01 in - ESE 3.5 mph - N/A   Clear
5:30 PM 69.8 °F - 37.4 °F 31% 29.98 in - ESE 2.3 mph - N/A   Clear
6:00 PM 69.8 °F - 37.4 °F 31% 29.98 in - East 2.3 mph - N/A   Clear
6:30 PM 68.0 °F - 35.6 °F 30% 29.98 in - North 5.8 mph - N/A   Clear
7:00 PM 68.0 °F - 35.6 °F 30% 29.98 in 6.2 mi NNE 6.9 mph - N/A   Partly Cloudy
7:30 PM 68.0 °F - 37.4 °F 33% 29.98 in 6.2 mi NNE 4.6 mph - N/A   Partly Cloudy
8:00 PM 66 °F - 26 °F 12% 29.94 in 19 mi North 9.2 mph - -   Scattered Clouds
8:00 PM 66.2 °F - 28.4 °F 24% 29.98 in 6.2 mi NNE 5.8 mph - N/A   Partly Cloudy
8:30 PM 64.4 °F - 24.8 °F 22% 30.01 in 6.2 mi North 11.5 mph - N/A   Scattered Clouds
9:00 PM 60.8 °F - 24.8 °F 25% 30.01 in 6.2 mi North 11.5 mph - N/A   Partly Cloudy
9:30 PM 60.8 °F - 23.0 °F 23% 30.01 in 6.2 mi North 13.8 mph - N/A   Partly Cloudy
10:00 PM 59.0 °F - 24.8 °F 27% 30.04 in 6.2 mi North 12.7 mph - N/A   Partly Cloudy
10:30 PM 59.0 °F - 26.6 °F 29% 30.04 in - North 10.4 mph - N/A   Clear
11:00 PM 57.2 °F - 33.8 °F 41% 30.06 in - North 11.5 mph - N/A   Clear
11:30 PM 55.4 °F - 33.8 °F 44% 30.06 in - East 1.2 mph - N/A   Clear